Hourly Data Report for September 27, 2017

All times are specified in Local Standard Time (LST). Add 1 hour to adjust for Daylight Saving Time where and when it is observed.

CORAL HARBOUR A
NUNAVUT

64°11'36.000" N
83°21'34.000" W
62.20 m
2301002
71915
YZS

Download Data

Hourly Data (September 2017)
Hourly Data Report for September 27, 2017
Temp Definition
°C
Dew Point Temp Definition
°C
Rel Hum Definition
%
Wind Dir Definition
10's deg

Wind Spd Definition
km/h
Visibility Definition
km
Stn Press Definition
kPa
Hmdx Definition


Wind Chill Definition


Weather Definition


TIME
00:00 Legend Double Dagger -0.7 -1.5 95 18 9 24.1 101.05   -4 LegendNANA
01:00 Legend Double Dagger -0.5 -1.1 96 5 5 24.1 101.02   -2 Mostly Cloudy
02:00 Legend Double Dagger 0.0 -0.3 97 36 3 24.1 101.02   -1 LegendNANA
03:00 Legend Double Dagger -0.2 -0.5 98 16 19 24.1 101.00   -5 LegendNANA
04:00 Legend Double Dagger -0.4 -0.8 98 15 12 24.1 101.02   -4 Cloudy
05:00 Legend Double Dagger 0.0 -0.4 97 15 21 24.1 100.98   -5 LegendNANA
06:00 Legend Double Dagger 0.6 -0.1 96 29 7 24.1 100.98     LegendNANA
07:00 Legend Double Dagger 0.2 -0.6 94 18 13 24.1 100.94     Cloudy
08:00 Legend Double Dagger -0.2 -0.6 98 17 11 2.0 100.92   -4 Fog
09:00 Legend Double Dagger 0.1 -0.4 96 21 8 3.2 100.91     Fog
10:00 Legend Double Dagger 0.4 -0.4 95 19 10 19.3 100.89     Cloudy
11:00 Legend Double Dagger 1.1 0.2 94 20 14 24.1 100.89     LegendNANA
12:00 Legend Double Dagger 0.9 0.2 95 22 8 24.1 100.88     LegendNANA
13:00 Legend Double Dagger 1.0 0.0 93 24 9 24.1 100.85     Cloudy
14:00 Legend Double Dagger 2.3 0.6 89 23 6 24.1 100.81     LegendNANA
15:00 Legend Double Dagger 3.8 1.5 85 23 9 24.1 100.77     LegendNANA
16:00 Legend Double Dagger 3.4 1.3 86 16 21 24.1 100.75     Mostly Cloudy
17:00 Legend Double Dagger 3.6 1.0 83 27 10 24.1 100.72     LegendNANA
18:00 Legend Double Dagger 3.1 -0.2 79 28 14 24.1 100.70     LegendNANA
19:00 Legend Double Dagger 0.3 -1.4 88 28 11 24.1 100.71     Mostly Cloudy
20:00 Legend Double Dagger 1.2 -0.6 88 29 16 24.1 100.68     LegendNANA
21:00 Legend Double Dagger 2.5 -0.1 83 29 21 24.1 100.64     LegendNANA
22:00 Legend Double Dagger 2.9 0.0 81 29 19 24.1 100.65     Mostly Cloudy
23:00 Legend Double Dagger 2.6 -0.1 83 29 13 24.1 100.65     LegendNANA

Notes on Data Quality.

Legend

  • E = Estimated
  • M = Missing
  • NA = Not Available
  • ‡ = Partner data that is not subject to review by the National Climate Archives
Date modified: